Reflectivity
-20 -20 -20 -7 6 13 8 4 -20 -19 -20 -20 -20 -13 -20 -20 -20 -20 -20 -20 -20 -20 -20 -20 -20 -20 -20 -20 -20 -20 -20 -20 -20 -20 -20 -20 -20 -20 -20 -20 -20 -20 -20 -20
-20 -20 11 -20 -17 -15 -3 1 10 -20 -19 -20 -20 -20 -20 -20 -20 -20 -20 -20 -20 -20 -20 -20 -20 -20 -20 -20 -20 -20 18 -20 -20 -20 -20 -20 -20 -20 -20 -20 -20 -20 -20 -20
-20 -19 -9 -20 -20 -20 -20 -20 -17 -20 -20 -20 -20 -20 -20 -20 -20 -20 -20 -20 -20 -20 -20 -20 -20 -20 -20 -20 -20 -20 -20 -20 -20 -20 -20 -20 -20 -20 -20 -20 -20 -20 -20 -20
-20 -18 -17 -20 -20 2 -16 -7 -16 -20 -20 -20 -20 -20 -20 -20 -19 -20 -20 -14 -11 -20 -20 -20 -20 -20 -20 -20 -20 -20 -20 -20 -20 -20 -20 -20 -20 -20 -20 -20 -20 -20 -20 -20
-20 -18 -4 -20 -20 19 -2 -20 -20 -20 -20 -20 -20 -20 -19 -10 -12 -18 -20 -20 -20 -20 -20 -20 -20 -20 -20 -20 -20 -20 -20 -20 -20 -20 -20 -20 -20 -20 -20 -20 -20 -20 -20 -20
-20 -20 -20 -17 -13 -20 -20 -20 -20 -20 -20 -14 -19 -20 -9 -20 -17 13 -1 -20 -20 -20 -20 -20 -20 -20 -20 -20 -20 -20 -20 -20 -20 -20 -20 -20 -20 -20 -20 -20 -20 -20 -20 -20
-20 12 11 -15 -19 -20 -20 -20 -20 -20 -20 -20 -20 -20 -19 -20 -20 -20 -13 -20 -20 -20 -20 -20 -20 -20 -20 -20 -20 -20 2 -20 -20 -20 -20 -20 -20 -20 -20 -20 -20 -15 -15 -20
-20 -20 -20 -20 -20 -20 -20 -20 -20 -20 -20 -20 -18 -14 -20 -20 -20 -20 -20 -20 -20 -20 -20 -20 -20 -20 -20 -20 -20 -14 -20 -20 -20 -20 -20 -20 -20 -20 -20 -20 -20 -18 -18 -11
-20 -20 -20 -16 -20 -20 -20 -20 -7 -20 -20 -20 -20 -20 -20 -20 -20 -20 -20 -20 -20 -20 -20 -20 -20 -20 -20 -20 -20 -20 -20 -20 -20 -20 -20 -20 -20 -20 -20 -20 -20 -18 -20 -0
-20 -20 -20 -11 -19 -20 -20 -7 -18 -20 -20 -20 -20 -20 -20 -20 -7 -20 -20 -20 -20 -20 -20 -20 -20 -20 -20 -20 -20 -20 -20 -20 -20 -20 -20 -20 -20 -20 -6 -10 -20 -8 -1 -12
-20 -20 -20 -2 -1 -20 -20 -20 -20 -20 -20 -20 -20 -20 -20 -20 -20 -20 -20 -20 -20 -20 -20 -20 -20 -20 -20 -20 -20 -20 -20 -20 -20 3 6 -4 -14 -9 25 6 28 -18 23 -15
-20 -20 -20 30 -20 -20 -20 -14 -20 -20 -20 -20 -20 -20 -20 -20 -20 -20 -20 -20 -20 -20 -20 -20 -20 -20 -20 -20 -20 -20 -20 -20 -18 -18 -16 12 10 17 26 4 -6 -12 6 -20
-20 -20 -20 -20 -1 1 -16 -20 -20 -20 -20 -20 -20 -20 -20 -20 -20 -20 -20 -20 -20 -20 -20 -20 -20 -20 -20 -20 -20 -20 -20 3 10 18 12 15 18 25 5 23 -20 -18 -20 -20
-20 -20 -20 -20 -20 -20 -20 -20 -20 -20 -20 -20 -20 -20 -20 -20 -20 -20 -20 -20 -20 -20 -20 -20 -20 -20 -20 -7 16 2 -15 -12 -11 6 10 7 0 -2 12 -10 -13 -20 -19 -6
-20 -20 -20 -20 -20 -20 -20 -20 -20 -20 -20 -20 -20 -20 -20 -20 -20 -20 -20 -20 -20 -20 -20 -20 -20 -20 16 8 1 -12 -13 -20 -20 -8 10 -17 -3 -20 3 -7 8 -20 6 6
-20 -20 -20 -20 -20 -20 -20 -20 -20 -20 -20 -20 -20 -20 -20 -20 -20 -20 -20 -20 -20 -20 -20 -20 -20 -20 -20 -3 -19 -20 -20 -20 -20 -20 -20 -8 -13 -17 10 1 -20 -18 -1 -20
-20 -20 -20 -20 -20 -20 -20 -20 -20 -20 -20 -20 -20 -20 -20 -20 -20 -20 -20 -20 -20 -20 -20 -20 -20 -20 -20 -20 -20 -20 -20 -20 -20 -19 -12 -17 -20 -3 -1 -16 3 11 7 -10
-20 -20 -20 -20 -20 -20 -20 -20 -20 -20 -20 -20 -20 -20 -20 -20 -20 -20 -20 -20 -20 -20 -20 -20 -20 -20 -20 -20 -20 -20 -20 -20 -20 -20 -20 -20 -20 -5 -5 15 20 8 -15 -15
-20 -20 -20 -20 -20 -20 -20 -20 -20 -20 -20 -20 -20 -20 -20 -20 -20 -20 -20 -20 -20 -20 -20 -20 -20 -20 -20 -20 -20 -20 -20 -20 -20 -20 -18 -20 -14 19 11 -13 -9 -19 -20 -6
-20 -20 -20 -20 -20 -20 -20 -20 -20 -20 -20 -20 -20 -20 -20 -20 -20 -20 -20 -20 -20 -20 -20 -20 -20 -20 -20 -20 -20 -20 -20 -20 -20 -20 -19 23 13 -20 -20 -20 -20 -9 -7 -20
-20 -20 -20 -20 -20 -20 -20 -20 -20 -20 -20 -20 -20 -20 -20 -20 -20 -20 -20 -20 -20 -20 -20 -20 -20 -20 -20 -20 -20 -20 -20 -20 -15 23 16 -20 -20 -20 -20 -18 -18 -20 -20 -20
-20 -20 -20 -20 -18 -20 -20 -20 -20 -20 -20 -20 -20 -20 -20 -20 -20 -20 -20 -20 -20 -20 -20 -20 -20 -20 -20 -20 -20 -20 0 16 -4 -20 -16 -16 -20 -20 -20 -20 -20 -20 -20 -20
-20 -20 -20 -20 -20 -20 -20 -20 -20 -20 -20 -20 -20 -20 -20 -20 -20 -20 -20 -20 -20 -20 -20 -20 -20 -20 -20 -20 -18 -20 -20 -20 -20 -13 -20 -20 -20 -20 -20 -20 -20 -20 -20 -20
-20 -20 -20 -20 -20 -20 -20 -20 -20 -20 -20 -20 -20 -20 -20 -20 -20 -20 -20 -20 -20 -20 -20 -20 -20 -20 -20 -20 -20 -20 -20 -20 -20 -20 -20 -20 -20 -20 -20 -20 -20 -20 -20 -20
-20 -20 -20 -20 -20 -20 -20 -20 -20 -20 -20 -20 -20 -20 -20 -20 -20 -20 -20 -20 -20 -20 -20 -20 -20 -20 -20 -20 -20 -20 -20 -20 -20 -20 -20 -20 -20 -20 -20 -20 -20 -20 -20 -20
-20 -20 -20 -20 -20 -20 -20 -20 -20 -20 -20 -20 -20 -20 -20 -20 -20 -20 -20 -20 -20 -20 -20 -20 -20 -20 -20 -20 -20 -20 -20 -20 -20 -20 -20 -20 -20 -20 -20 -20 -20 -20 -20 -20
Wind_Speed
4 4 1 3 2 8 8 13 10 7 9 10 15 10 11 9 12 12 10 9 9 10 9 9 11 18 15 15 16 16 16 10 9 4 4 3 4 3 3 4 6 7 6 7
3 3 4 11 10 11 9 12 1 9 5 7 6 12 12 9 12 14 13 11 13 9 11 8 10 15 17 18 15 15 14 12 8 5 4 4 5 3 4 4 5 6 7 6
5 3 4 8 14 15 7 4 2 3 4 3 3 2 2 6 7 12 15 14 13 15 13 9 9 12 13 12 14 13 13 12 9 8 5 4 3 3 3 3 4 4 7 6
4 5 3 9 16 19 8 13 2 0 4 2 4 3 1 4 9 7 12 11 11 11 13 11 9 12 14 11 11 11 12 11 10 8 8 7 4 6 4 4 4 4 6 6
4 5 0 6 14 11 8 11 6 5 2 4 2 5 7 5 5 5 9 11 15 17 18 16 13 16 16 14 12 9 10 9 8 10 9 8 5 4 4 4 9 5 5 6
8 5 5 5 7 9 3 2 4 5 3 2 10 6 5 8 18 4 6 4 9 10 14 13 13 14 13 11 9 8 8 7 8 8 9 9 8 7 7 7 6 4 2 3
3 8 3 4 10 6 6 4 4 7 7 5 4 5 10 8 9 17 17 13 5 10 13 14 15 11 11 8 8 7 9 9 8 9 7 7 8 7 8 7 5 5 3 3
6 3 2 5 4 4 5 4 5 4 2 6 5 5 6 3 8 14 14 8 6 9 10 13 11 11 12 9 9 10 10 8 8 8 8 7 8 5 4 6 4 4 4 4
4 3 4 8 5 4 1 4 6 5 2 3 5 4 4 6 6 8 10 9 8 8 8 10 10 12 9 9 9 8 8 8 8 8 7 7 7 7 6 7 6 5 5 5
2 4 3 8 5 8 6 5 3 3 2 3 5 3 4 6 5 6 8 9 9 8 9 8 10 12 10 10 8 7 7 9 9 11 11 7 8 7 7 5 6 6 5 6
7 5 2 6 3 12 2 3 2 4 6 6 1 5 2 8 9 9 9 13 12 11 10 9 8 12 12 10 9 9 8 9 9 7 6 9 6 7 7 5 4 5 5 5
9 6 4 16 20 15 6 6 6 6 6 3 6 7 2 7 9 9 8 12 13 13 12 10 9 12 13 15 15 12 8 10 9 10 9 6 6 6 4 3 5 5 5 4
2 2 3 1 4 3 3 5 4 4 4 4 7 7 3 6 5 5 5 8 10 12 10 10 9 12 13 13 12 10 12 12 11 9 7 4 6 3 3 5 5 5 6 5
7 0 6 7 7 4 4 5 6 4 5 4 6 5 10 8 8 7 6 4 8 12 13 12 11 13 12 11 8 11 12 12 11 9 5 5 4 3 5 6 5 6 4 2
5 4 1 4 5 5 4 1 4 4 5 7 9 8 10 2 7 1 4 0 3 6 7 9 8 10 10 10 9 12 12 11 9 9 7 9 6 5 5 5 5 3 1 1
1 3 4 1 5 7 4 6 6 6 6 5 2 4 4 7 7 8 7 7 8 8 8 8 11 12 12 12 14 13 11 10 8 11 10 6 6 8 6 2 1 3 3 2
7 4 4 2 4 7 7 7 6 6 4 3 3 5 9 9 9 7 8 9 6 7 8 7 8 10 11 14 15 14 11 12 12 11 7 6 7 6 3 2 4 5 4 4
6 6 4 3 4 2 10 2 5 5 5 8 8 9 9 8 10 13 8 10 9 8 8 8 9 11 11 12 13 14 13 12 10 8 9 9 7 5 4 5 5 4 3 4
4 5 3 6 4 5 9 2 3 4 4 5 7 7 6 7 10 9 8 8 7 8 9 11 12 12 13 14 12 13 11 11 10 8 8 7 7 4 4 6 6 6 4 3
6 5 7 2 5 7 7 4 4 3 2 5 8 8 8 7 6 4 7 9 11 13 12 15 15 15 16 13 14 14 11 10 8 8 8 5 2 5 5 7 6 4 3 4
4 4 5 2 2 8 5 6 1 7 8 4 7 6 8 5 5 4 7 14 16 15 18 17 17 15 11 10 11 13 12 10 6 4 2 3 4 6 6 5 2 3 4 2
8 7 4 4 2 7 6 5 7 6 4 7 7 6 6 5 5 7 15 16 17 17 17 16 15 13 10 10 10 8 6 3 3 4 4 3 5 4 4 5 5 5 5 4
2 8 8 8 8 5 9 12 6 8 7 5 7 7 7 7 5 13 16 16 16 16 13 10 11 10 6 6 7 6 5 5 3 3 5 5 5 5 6 5 5 4 4 4
1 5 4 6 1 10 12 9 8 8 9 11 11 8 5 5 12 15 14 13 13 11 10 8 7 6 6 6 5 1 4 4 4 4 5 6 6 6 6 4 4 4 4 4
6 5 6 6 9 13 10 7 8 11 13 15 16 15 13 18 15 15 13 12 10 8 8 7 6 5 4 4 5 5 3 2 4 6 6 6 4 6 6 5 5 5 5 5
1 4 5 5 4 8 5 6 12 16 14 12 14 14 14 14 14 13 11 8 8 7 5 4 2 2 4 3 4 4 5 4 4 5 5 5 4 5 5 5 8 8 9 9
Wind_Direction
211 76 262 256 213 240 243 239 235 256 190 172 200 180 180 184 156 157 164 161 156 148 164 152 138 147 140 141 135 149 145 146 140 153 153 159 163 162 156 162 153 143 119 100
46 125 259 303 315 284 255 282 308 341 233 154 158 195 184 178 173 167 167 165 166 142 142 139 126 148 150 155 147 150 151 156 164 173 176 153 152 174 171 160 149 133 116 110
114 207 254 301 312 311 328 337 303 196 323 11 63 87 313 208 165 175 178 175 166 154 153 149 139 138 143 143 152 154 156 164 176 188 161 130 141 107 114 144 132 145 132 131
196 202 240 299 282 292 218 264 196 179 80 228 56 229 282 292 210 186 177 178 167 161 155 161 148 122 136 144 153 162 169 178 189 194 163 160 159 160 185 160 131 139 148 156
245 150 29 268 261 212 205 222 192 194 195 353 312 106 266 218 253 282 215 183 177 172 165 167 150 144 146 155 171 187 171 181 189 176 159 156 166 166 143 139 143 162 179 173
205 147 187 226 250 242 90 19 56 84 142 186 228 117 289 214 224 214 246 252 168 162 165 153 151 145 156 162 164 167 181 186 163 150 157 156 163 144 129 137 152 170 149 85
215 224 201 181 268 23 57 51 359 8 11 239 340 123 235 230 213 206 210 236 169 130 130 145 154 155 162 163 167 181 177 163 148 130 131 122 125 128 131 139 130 120 98 101
158 330 347 11 332 180 58 108 153 148 199 280 162 235 252 181 194 199 196 197 171 131 139 152 161 161 159 154 164 169 149 147 143 133 125 124 121 117 111 120 115 97 91 82
157 353 333 340 342 305 144 85 267 129 306 57 252 32 16 95 64 116 170 176 142 139 146 146 139 145 141 141 151 146 143 150 147 138 125 117 109 109 107 104 103 102 102 104
138 118 351 264 317 319 164 192 180 333 154 262 315 332 189 138 150 133 146 156 161 158 159 157 153 156 154 150 152 155 148 160 156 141 140 130 119 108 84 76 92 100 100 82
139 126 290 26 237 237 253 261 269 150 141 169 158 281 176 173 159 180 190 174 171 168 172 168 164 169 161 158 157 175 154 146 131 121 92 105 97 96 107 108 69 109 116 97
189 132 152 224 244 254 178 195 179 121 265 191 146 269 174 146 173 177 208 184 177 172 173 174 170 165 170 173 175 177 142 123 114 111 103 79 85 100 97 158 142 123 108 88
132 247 76 288 292 331 232 233 218 174 95 195 129 259 231 173 162 178 189 182 172 175 174 177 167 176 170 170 158 134 124 108 110 110 107 86 101 118 163 154 125 108 101 88
98 356 149 186 214 226 269 215 263 171 111 209 203 251 301 245 199 203 208 140 180 178 181 185 182 177 150 132 133 116 115 123 121 118 109 132 145 147 113 103 122 97 110 99
116 167 282 295 312 334 296 355 332 316 225 147 235 210 252 330 122 173 172 314 163 159 198 194 144 129 126 130 122 120 123 124 125 124 112 87 86 105 88 76 98 126 168 271
235 206 127 320 338 20 15 332 313 301 301 326 344 265 231 179 112 84 74 64 71 42 40 99 128 139 141 136 134 128 124 128 105 96 96 105 107 81 89 102 326 336 311 218
149 132 85 239 357 10 351 246 236 244 275 243 277 295 66 58 58 60 60 53 57 78 64 101 140 150 143 138 134 132 126 104 100 96 97 87 89 112 105 18 328 284 266 251
149 121 100 177 41 33 242 295 119 115 50 62 78 79 80 69 54 54 49 75 48 44 55 78 92 88 93 106 107 105 100 97 99 99 94 90 86 54 2 309 264 268 275 262
84 106 96 132 183 287 317 143 151 133 36 33 73 62 84 95 63 23 14 43 58 66 70 77 80 82 80 85 89 91 90 90 86 80 75 77 55 2 277 275 279 258 239 241
56 83 119 129 144 202 236 156 40 64 55 11 62 47 44 47 66 283 350 38 40 66 75 82 77 73 70 72 79 80 78 76 69 70 66 64 294 275 274 259 269 245 235 255
40 8 143 132 178 287 243 137 100 93 223 73 65 61 70 87 160 168 60 74 73 69 76 79 74 72 65 67 72 72 71 72 82 83 190 233 242 256 271 288 279 265 263 196
158 137 199 102 98 277 178 77 131 196 63 79 63 56 61 65 126 101 90 81 75 78 73 70 76 70 65 69 71 71 72 37 345 349 8 322 287 286 293 294 283 281 282 214
131 172 175 161 210 229 71 101 82 86 93 60 69 45 45 38 38 98 94 89 81 80 80 77 81 82 80 79 60 63 47 9 17 353 298 286 299 285 274 274 279 283 259 229
85 141 113 83 295 94 89 72 74 73 75 74 50 38 34 31 95 94 90 90 88 87 88 91 87 79 67 52 51 331 281 261 268 276 279 279 271 277 278 271 264 263 256 239
201 112 143 103 109 83 50 56 87 68 77 76 60 57 65 91 82 94 92 90 92 86 70 62 56 42 356 318 293 281 285 245 254 260 264 265 270 277 277 266 253 255 241 195
117 165 136 207 124 103 103 79 87 82 80 78 84 72 66 80 94 96 89 79 75 74 68 60 9 296 295 338 347 319 296 283 253 252 253 243 246 251 255 268 281 248 235 242